Regional Weather Roundup
Issued by NWS

Home | Current Version | Previous Version | Text Only | Print | Product List | Glossary On
Versions: 1 2 3 4 5 6 7 8 9 10 11 12 13 14 15 16 17 18 19 20 21 22 23 24 25 26 27 28 29 30 31 32 33 34 35 36 37 38 39 40 41 42 43 44 45 46 47 48 49 50
000
ASUS44 KJAN 260510
RWRMS

MISSISSIPPI HOURLY WEATHER ROUNDUP
NATIONAL WEATHER SERVICE JACKSON MS
1100 PM CST SAT FEB 25 2017

NOTE: "FAIR: INDICATES FEW OR NO CLOUDS BELOW 12,000 FEET WITH NO
SIGNIFICANT WEATHER AND/OR OBSTRUCTIONS TO VISIBILITY.

MSZ001>002-007>008-010>013-018>021-025>028-034>036-260600-
NORTHWEST MISSISSIPPI

CITY           SKY/WX    TMP DP  RH WIND       PRES   REMARKS
BATESVILLE     FAIR      30  28  94 CALM      30.18F
CLEVELAND      FAIR      39  28  64 CALM      30.17S
GREENWOOD      CLEAR     35  23  61 CALM      30.17S
GREENVILLE     CLEAR     36  26  67 CALM      30.16F
OXFORD         FAIR      28  25  86 CALM      30.18S
TUNICA         CLEAR     34  27  75 SE3       30.18F
WINONA         FAIR      33  29  84 CALM      30.17S
$$

MSZ003>006-009-014>017-022>024-029>033-037>039-260600-
NORTHEAST MISSISSIPPI

CITY           SKY/WX    TMP DP  RH WIND       PRES   REMARKS
COLUMBUS AFB   CLEAR     38  27  63 N5        30.16S WCI  35
CORINTH        FAIR      30  25  80 CALM      30.16S
GOLDN TRIANGLE CLEAR     37  21  52 N6        30.12S WCI  33
STARKVILLE     FAIR      34  28  80 CALM      30.18S
TUPELO         CLEAR     34  23  64 N3        30.16F
$$

MSZ040-058-260600-
CENTRAL MISSISSIPPI

CITY           SKY/WX    TMP DP  RH WIND       PRES   REMARKS
JACKSON INTL   CLEAR     38  31  76 CALM      30.16S
JACKSON HAWKNS CLEAR     40  29  64 CALM      30.17R
MADISON        FAIR     N/A N/A N/A CALM      30.16S
MERIDIAN KEY   CLEAR     38  31  76 CALM      30.16S
MERIDIAN NAS   CLEAR     39  26  59 NW3       30.17R
VICKSBURG VKS    N/A     36  32  87 CALM      30.13F
$$

MSZ059>079-260600-
SOUTH MISSISSIPPI

CITY           SKY/WX    TMP DP  RH WIND       PRES   REMARKS
BROOKHAVEN     FAIR     N/A N/A N/A CALM      30.15R
HATTIESBURG    CLEAR     46  27  47 N5        30.15F
LAUREL         FAIR      39  31  74 CALM      30.17R
MCCOMB         PTCLDY    46  26  45 NE3       30.13S
NATCHEZ        CLEAR     43  28  56 NE5       30.13S
PINE BELT      CLEAR     41  27  56 N3        30.16F
$$

MSZ080>082-260600-
COASTAL MISSISSIPPI

CITY           SKY/WX    TMP DP  RH WIND       PRES   REMARKS
BILOXI         CLEAR     52  33  49 N9        30.13R
PASCAGOULA     PTCLDY    46  34  62 N6        30.13R
GULFPORT       CLEAR     52  31  44 N8        30.13R
$$

LAZ007>009-015>016-023>026-260600-
NORTHEAST LOUISIANA

CITY           SKY/WX    TMP DP  RH WIND       PRES   REMARKS
BASTROP        FAIR      36  34  92 CALM      30.16S
TALLULAH/VBURG CLEAR     39  31  72 NE3       30.16F
VIDALIA        FAIR      44  31  59 NE3       30.13F
$$



USA.gov is the U.S. government's official web portal to all federal, state and local government web resources and services.